| time (UTC) | temp F | wind direction | speed MPH | gust MPH | rain 1hr in | rain 24hr in | rain mn in | humidity % | barometer mb |
| 20260905073034 | 77 | 0.0 | 0.0 | 0.00 | 0.00 | 0.00 | 11 | 1010.1 | |
| 20260905072024 | 77 | 0.0 | 0.0 | 0.00 | 0.00 | 0.00 | 11 | 1010.0 | |
| 20260905071012 | 77 | 0.0 | 1.0 | 0.00 | 0.00 | 0.00 | 11 | 1009.9 | |
| 20260905070001 | 77 | 0.0 | 0.0 | 0.00 | 0.00 | 0.00 | 11 | 1010.0 | |
| 20260905064949 | 78 | 0.0 | 1.0 | 0.00 | 0.00 | 0.00 | 11 | 1009.8 | |
| 20260905063938 | 77 | 0.0 | 0.0 | 0.00 | 0.00 | 0.00 | 11 | 1009.8 | |
| 20260905062723 | 77 | 0.0 | 0.0 | 0.00 | 0.00 | 0.00 | 11 | 1009.8 | |
| 20260905061610 | 77 | 0.0 | 0.0 | 0.00 | 0.00 | 0.00 | 11 | 1009.7 | |
| 20260905060154 | 77 | 0.0 | 1.0 | 0.00 | 0.00 | 0.00 | 11 | 1009.9 | |
| 20260905054334 | 77 | 0.0 | 1.0 | 0.00 | 0.00 | 0.00 | 11 | 1009.7 | |
| 20260905053222 | 77 | 0.0 | 0.0 | 0.00 | 0.00 | 0.00 | 11 | 1009.7 | |
| 20260905044126 | 77 | 0.0 | 1.0 | 0.00 | 0.00 | 0.00 | 11 | 1009.2 | |
| 20260905043114 | 77 | 0.0 | 0.0 | 0.00 | 0.00 | 0.00 | 11 | 1009.2 | |
| 20260905041355 | 77 | 0.0 | 0.0 | 0.00 | 0.00 | 0.00 | 11 | 1009.2 | |
| 20260905035130 | 75 | 0.0 | 0.0 | 0.00 | 0.00 | 0.00 | 11 | 1009.4 | |
| 20260905032904 | 77 | 0.0 | 0.0 | 0.00 | 0.00 | 0.00 | 11 | 1009.5 | |
| 20260905031651 | 75 | 0.0 | 1.0 | 0.00 | 0.00 | 0.00 | 11 | 1009.5 | |
| 20260905013501 | 75 | 0.0 | 0.0 | 0.00 | 0.00 | 0.00 | 11 | 1009.9 | |
| 20260905011337 | 75 | 0.0 | 0.0 | 0.00 | 0.00 | 0.00 | 11 | 1009.9 | |
| 20260905010123 | 75 | 0.0 | 1.0 | 0.00 | 0.00 | 0.00 | 11 | 1009.9 | |
| 20260904224014 | 75 | 0.0 | 0.0 | 0.00 | 0.00 | 0.00 | 11 | 1010.6 | |
| 20260904223002 | 75 | 0.0 | 0.0 | 0.00 | 0.00 | 0.00 | 11 | 1010.7 | |
| 20260904220333 | 75 | 0.0 | 1.0 | 0.00 | 0.00 | 0.00 | 11 | 1010.7 | |
| 20260904215320 | 75 | 0.0 | 1.0 | 0.00 | 0.00 | 0.00 | 11 | 1010.6 | |
| 20260904213459 | 75 | 0.0 | 1.0 | 0.00 | 0.00 | 0.00 | 11 | 1010.6 | |
| 20260904212448 | 75 | 0.0 | 1.0 | 0.00 | 0.00 | 0.00 | 11 | 1010.5 | |
| 20260904211437 | 75 | 0.0 | 0.0 | 0.00 | 0.00 | 0.00 | 11 | 1010.5 | |
| 20260904210426 | 75 | 0.0 | 1.0 | 0.00 | 0.00 | 0.00 | 11 | 1010.5 | |
| 20260904205414 | 77 | 0.0 | 2.0 | 0.00 | 0.00 | 0.00 | 11 | 1010.7 | |
| 20260904204403 | 77 | 0.0 | 0.0 | 0.00 | 0.00 | 0.00 | 11 | 1010.7 | |
| 20260904203149 | 77 | 0.0 | 1.0 | 0.00 | 0.00 | 0.00 | 11 | 1010.8 | |
| 20260904201832 | 77 | 0.0 | 1.0 | 0.00 | 0.00 | 0.00 | 11 | 1010.8 | |
| 20260904200821 | 77 | 0.0 | 0.0 | 0.00 | 0.00 | 0.00 | 11 | 1010.8 | |
| 20260904195808 | 77 | 0.0 | 2.0 | 0.00 | 0.00 | 0.00 | 11 | 1010.8 | |
| 20260904194756 | 78 | 0.0 | 1.0 | 0.00 | 0.00 | 0.00 | 11 | 1010.8 | |
| 20260904193745 | 78 | 1.0 | 3.0 | 0.00 | 0.00 | 0.00 | 11 | 1010.8 | |
| 20260904192734 | 78 | 3.0 | 4.0 | 0.00 | 0.00 | 0.00 | 11 | 1010.8 | |
| 20260904191722 | 78 | 1.0 | 3.0 | 0.00 | 0.00 | 0.00 | 11 | 1010.8 | |
| 20260904190711 | 78 | 0.0 | 1.0 | 0.00 | 0.00 | 0.00 | 11 | 1010.8 | |
| 20260904185659 | 78 | 0.0 | 2.0 | 0.00 | 0.00 | 0.00 | 11 | 1010.6 | |
| 20260904184647 | 78 | 1.0 | 4.0 | 0.00 | 0.00 | 0.00 | 11 | 1010.3 | |
| 20260904183636 | 78 | 0.0 | 3.0 | 0.00 | 0.00 | 0.00 | 11 | 1010.2 | |
| 20260904182624 | 78 | 1.0 | 3.0 | 0.00 | 0.00 | 0.00 | 11 | 1010.2 | |
| 20260904181613 | 78 | 4.0 | 6.0 | 0.00 | 0.00 | 0.00 | 11 | 1010.2 | |
| 20260904180602 | 78 | 2.0 | 6.0 | 0.00 | 0.00 | 0.00 | 11 | 1010.0 | |
| 20260904175550 | 78 | 4.0 | 6.0 | 0.00 | 0.00 | 0.00 | 11 | 1010.0 | |
| 20260904174535 | 78 | 1.0 | 4.0 | 0.00 | 0.00 | 0.00 | 11 | 1010.0 | |
| 20260904173518 | 78 | 1.0 | 5.0 | 0.00 | 0.00 | 0.00 | 11 | 1010.0 | |
| 20260904172507 | 78 | 3.0 | 8.0 | 0.00 | 0.00 | 0.00 | 11 | 1010.0 | |
| 20260904171456 | 78 | 2.0 | 7.0 | 0.00 | 0.00 | 0.00 | 11 | 1010.1 | |
| 20260904170445 | 78 | 4.0 | 6.0 | 0.00 | 0.00 | 0.00 | 11 | 1010.1 | |
| 20260904165433 | 80 | 2.0 | 7.0 | 0.00 | 0.00 | 0.00 | 11 | 1010.2 | |
| 20260904164421 | 80 | 3.0 | 5.0 | 0.00 | 0.00 | 0.00 | 11 | 1010.3 | |
| 20260904163409 | 80 | 2.0 | 7.0 | 0.00 | 0.00 | 0.00 | 11 | 1010.3 | |
| 20260904162357 | 80 | 3.0 | 6.0 | 0.00 | 0.00 | 0.00 | 11 | 1010.4 | |
| 20260904161346 | 80 | 2.0 | 6.0 | 0.00 | 0.00 | 0.00 | 11 | 1010.4 | |
| 20260904160334 | 80 | 3.0 | 5.0 | 0.00 | 0.00 | 0.00 | 11 | 1010.5 | |
| 20260904155322 | 80 | 3.0 | 4.0 | 0.00 | 0.00 | 0.00 | 11 | 1010.6 | |
| 20260904154310 | 80 | 2.0 | 7.0 | 0.00 | 0.00 | 0.00 | 11 | 1010.6 | |
| 20260904153157 | 82 | 2.0 | 6.0 | 0.00 | 0.00 | 0.00 | 11 | 1010.7 | |
| 20260904152145 | 82 | 2.0 | 5.0 | 0.00 | 0.00 | 0.00 | 11 | 1010.8 | |
| 20260904151133 | 84 | 4.0 | 6.0 | 0.00 | 0.00 | 0.00 | 11 | 1010.8 | |
| 20260904150122 | 84 | 2.0 | 6.0 | 0.00 | 0.00 | 0.00 | 11 | 1010.8 | |
| 20260904145111 | 84 | 4.0 | 6.0 | 0.00 | 0.00 | 0.00 | 11 | 1010.8 | |
| 20260904144059 | 84 | 4.0 | 10.0 | 0.00 | 0.00 | 0.00 | 11 | 1010.9 | |
| 20260904143047 | 84 | 5.0 | 8.0 | 0.00 | 0.00 | 0.00 | 11 | 1010.8 | |
| 20260904142035 | 82 | 7.0 | 9.0 | 0.00 | 0.00 | 0.00 | 11 | 1011.1 | |
| 20260904141024 | 84 | 3.0 | 9.0 | 0.00 | 0.00 | 0.00 | 11 | 1011.1 | |
| 20260904140012 | 84 | 7.0 | 11.0 | 0.00 | 0.00 | 0.00 | 11 | 1011.1 | |
| 20260904135000 | 84 | 3.0 | 8.0 | 0.00 | 0.00 | 0.00 | 11 | 1011.3 | |
| 20260904133949 | 84 | 4.0 | 8.0 | 0.00 | 0.00 | 0.00 | 11 | 1011.2 | |
| 20260904132937 | 84 | 4.0 | 6.0 | 0.00 | 0.00 | 0.00 | 11 | 1011.3 | |
| 20260904131925 | 86 | 3.0 | 5.0 | 0.00 | 0.00 | 0.00 | 11 | 1011.4 | |
| 20260904130913 | 84 | 5.0 | 9.0 | 0.00 | 0.00 | 0.00 | 11 | 1011.5 | |
| 20260904125854 | 84 | 3.0 | 6.0 | 0.00 | 0.00 | 0.00 | 11 | 1011.6 | |
| 20260904124842 | 84 | 3.0 | 7.0 | 0.00 | 0.00 | 0.00 | 11 | 1011.5 | |
| 20260904123831 | 84 | 4.0 | 6.0 | 0.00 | 0.00 | 0.00 | 11 | 1011.8 | |
| 20260904122820 | 86 | 3.0 | 7.0 | 0.00 | 0.00 | 0.00 | 11 | 1011.8 | |
| 20260904121804 | 86 | 4.0 | 6.0 | 0.00 | 0.00 | 0.00 | 11 | 1012.0 | |
| 20260904120753 | 84 | 3.0 | 6.0 | 0.00 | 0.00 | 0.00 | 11 | 1012.0 | |
| 20260904115737 | 87 | 0.0 | 7.0 | 0.00 | 0.00 | 0.00 | 11 | 1012.0 | |
| 20260904114726 | 84 | 2.0 | 6.0 | 0.00 | 0.00 | 0.00 | 11 | 1012.0 | |
| 20260904113714 | 87 | 1.0 | 4.0 | 0.00 | 0.00 | 0.00 | 11 | 1012.0 | |
| 20260904112656 | 86 | 2.0 | 4.0 | 0.00 | 0.00 | 0.00 | 11 | 1012.1 | |
| 20260904111644 | 84 | 4.0 | 5.0 | 0.00 | 0.00 | 0.00 | 11 | 1012.1 | |
| 20260904110632 | 86 | 3.0 | 5.0 | 0.00 | 0.00 | 0.00 | 11 | 1012.1 | |
| 20260904105620 | 87 | 2.0 | 3.0 | 0.00 | 0.00 | 0.00 | 11 | 1012.1 | |
| 20260904104610 | 86 | 2.0 | 4.0 | 0.00 | 0.00 | 0.00 | 11 | 1012.2 | |
| 20260904103557 | 84 | 2.0 | 7.0 | 0.00 | 0.00 | 0.00 | 11 | 1012.1 | |
| 20260904102545 | 86 | 3.0 | 6.0 | 0.00 | 0.00 | 0.00 | 11 | 1012.2 | |
| 20260904101534 | 84 | 3.0 | 7.0 | 0.00 | 0.00 | 0.00 | 11 | 1012.3 | |
| 20260904100519 | 84 | 5.0 | 6.0 | 0.00 | 0.00 | 0.00 | 11 | 1012.2 | |
| 20260904095507 | 87 | 0.0 | 4.0 | 0.00 | 0.00 | 0.00 | 11 | 1012.3 | |
| 20260904094456 | 86 | 3.0 | 4.0 | 0.00 | 0.00 | 0.00 | 11 | 1012.3 | |
| 20260904093444 | 84 | 2.0 | 6.0 | 0.00 | 0.00 | 0.00 | 11 | 1012.3 | |
| 20260904092433 | 84 | 2.0 | 5.0 | 0.00 | 0.00 | 0.00 | 11 | 1012.3 | |
| 20260904091422 | 84 | 1.0 | 5.0 | 0.00 | 0.00 | 0.00 | 11 | 1012.3 | |
| 20260904090409 | 86 | 1.0 | 4.0 | 0.00 | 0.00 | 0.00 | 11 | 1012.2 | |
| 20260904085357 | 84 | 3.0 | 5.0 | 0.00 | 0.00 | 0.00 | 11 | 1012.1 | |
| 20260904084345 | 84 | 3.0 | 5.0 | 0.00 | 0.00 | 0.00 | 11 | 1012.0 | |
| 20260904083334 | 87 | 2.0 | 3.0 | 0.00 | 0.00 | 0.00 | 11 | 1012.0 | |
| 20260904082320 | 84 | 1.0 | 4.0 | 0.00 | 0.00 | 0.00 | 11 | 1011.9 | |
| 20260904081308 | 84 | 0.0 | 3.0 | 0.00 | 0.00 | 0.00 | 11 | 1011.8 | |
| 20260904080257 | 84 | 0.0 | 3.0 | 0.00 | 0.00 | 0.00 | 11 | 1011.8 | |
| 20260904075242 | 82 | 1.0 | 3.0 | 0.00 | 0.00 | 0.00 | 11 | 1011.8 | |
| 20260904074230 | 84 | 1.0 | 2.0 | 0.00 | 0.00 | 0.00 | 11 | 1011.7 |